[Iaude] MPEC D66: 2024 DR [a=1.56,e=0.56,i=12.7,H=22.8]

mpec at cfa.harvard.edu mpec at cfa.harvard.edu
Mon Feb 19 09:23:19 EST 2024


M.P.E.C. 2024-D66                             Issued 2024 February 19, 14:20 UT

     The Minor Planet Electronic Circulars contain information on unusual
         minor planets, routine data on comets and natural satellites,
         and occasional editorial announcements.  They are published
    on behalf of Division F of the International Astronomical Union by the
          Minor Planet Center, Smithsonian Astrophysical Observatory,
                          Cambridge, MA 02138, U.S.A.
			  
             Prepared using the Tamkin Foundation Computer Network

                              MPC at CFA.HARVARD.EDU
            URL https://www.minorplanetcenter.net/    ISSN 1523-6714

                                    2024 DR                                     


Observations:
     K24D00R*1C2024 02 16.47564115 19 26.472+51 17 54.02         21.42GVED066G96
     K24D00R 1C2024 02 16.48078115 19 23.102+51 18 02.45         21.72GVED066G96
     K24D00R 1C2024 02 16.48590615 19 19.657+51 18 10.26               VED066G96
     K24D00R 1C2024 02 16.49103015 19 16.288+51 18 18.43         21.65GVED066G96
     K24D00R  C2024 02 16.52684815 18 52.578+51 19 13.25         21.4 GVED066H01
     K24D00R  C2024 02 16.53011415 18 50.434+51 19 18.35         21.6 GVED066H01
     K24D00R  C2024 02 16.54285215 18 42.076+51 19 37.83         21.5 GVED066H01
     K24D00R KC2024 02 17.36385015 10 08.93 +51 38 34.1          21.8 GVED066H21
     K24D00R KC2024 02 17.37223815 10 03.60 +51 38 45.2          21.6 GVED066H21
     K24D00R KC2024 02 17.37643315 10 00.95 +51 38 50.8          21.6 GVED066H21
     K24D00R KC2024 02 18.45222114 59 00.082+51 59 20.29         21.59GVED066V06
     K24D00R KC2024 02 18.45730814 58 56.888+51 59 25.51         21.72GVED066V06
     K24D00R KC2024 02 18.46749314 58 50.516+51 59 36.20         21.69GVED066V06
     K24D00R  C2024 02 19.38324814 49 43.656+52 12 57.62         22.1 GVED066H01
     K24D00R  C2024 02 19.38878414 49 40.304+52 13 02.59         21.4 GVED066H01
     K24D00R  C2024 02 19.40280814 49 31.789+52 13 14.65         21.9 GVED066H01
     K24D00R  C2024 02 19.40677514 49 29.344+52 13 18.17         21.7 GVED066H01

Observer details:
G96 Mt. Lemmon Survey.  Observers V. F. Carvajal, J. K. Hogan.  Measurers T.
    Beuden, V. F. Carvajal, D. Fay, J. B. Fazekas, D. C. Fuls, A. R. Gibbs, A.
    D. Grauer, H. Groeller, J. K. Hogan, R. A. Kowalski, S. M. Larson, G. J.
    Leonard, D. Rankin, R. L. Seaman, F. C. Shelly, K. W. Wierzchos.  1.5-m
    reflector + 10K CCD.
H01 Magdalena Ridge Observatory, Socorro.  Observers W. H. Ryan, E. V. Ryan.
    Measurer W. H. Ryan.  2.4-m f/8.9 Ritchey-Chretien + CCD.
H21 Astronomical Research Observatory, Westfield.  Observer R. Holmes.
    Measurers T. Linder, R. Holmes, L. Horn.  0.76-m f/3.0 astrograph + CCD.
V06 Catalina Sky Survey-Kuiper.  Observer J. B. Fazekas.  Measurers T. Beuden,
    V. F. Carvajal, D. Fay, J. B. Fazekas, D. C. Fuls, A. R. Gibbs, A. D.
    Grauer, H. Groeller, J. K. Hogan, R. A. Kowalski, S. M. Larson, G. J.
    Leonard, D. Rankin, R. L. Seaman, F. C. Shelly, K. W. Wierzchos.  1.55-m
    reflector + 1K CCD.

Orbital elements:
2024 DR                                                  Earth MOID = 0.1497 AU
Epoch 2024 Mar. 31.0 TT = JDT 2460400.5                 Veres                   
M  51.16227              (2000.0)            P               Q                  
n   0.50618397     Peri.  327.34614     +0.45537086     -0.86309406             
a   1.5593028      Node    94.72054     +0.85663631     +0.35793591             
e   0.5587816      Incl.   12.65973     +0.24251107     +0.35630117             
P   1.95           H   22.86          G   0.15           U   9                  
Residuals in seconds of arc
240216 G96  0.5+  0.0     240216 H01  0.0   0.4+    240218 V06  0.3+  0.2-
240216 G96  0.5+  0.3+    240217 H21  0.2-  0.4-    240219 H01  0.1-  0.0
240216 G96  0.3-  0.1-    240217 H21 (0.1+  0.8-)   240219 H01  0.0   0.1+
240216 G96  0.4-  0.0     240217 H21 (0.4+  1.0-)   240219 H01  0.1+  0.0
240216 H01  0.0   0.0     240218 V06  0.2+  0.1+    240219 H01  0.2-  0.2+
240216 H01  0.0   0.1+    240218 V06  0.1+  0.1-

Ephemeris:
2024 DR                  a,e,i = 1.56, 0.56, 13                  q = 0.6880
Date    TT    R. A. (2000) Decl.     Delta      r    Elong.  Phase     V
2024 01 20    19 50 57.3 +04 01 31   0.1805  0.8233    24.6   150.2    27.2
...
2024 02 04    17 38 37.6 +38 03 01   0.1656  0.9513    73.3    97.1    22.3
...
2024 02 12    16 08 31.8 +48 30 02   0.1938  1.0246    95.7    73.5    21.9
...
2024 02 18    15 03 34.6 +51 51 12   0.2238  1.0802   108.5    60.2    21.9
2024 02 19    14 53 29.5 +52 07 38   0.2294  1.0895   110.3    58.3    21.9
2024 02 20    14 43 40.4 +52 20 05   0.2351  1.0988   112.1    56.5    22.0
...
2024 02 26    13 50 55.7 +52 26 36   0.2721  1.1542   121.1    47.2    22.1
...
2024 03 05    12 57 18.0 +50 35 57   0.3285  1.2273   129.5    38.6    22.4
...
2024 03 20    11 58 01.3 +44 38 01   0.4564  1.3597   135.5    30.9    23.1

M. P. C. Staff               (C) Copyright 2024 MPC           M.P.E.C. 2024-D66





More information about the Iaude mailing list